Columbia Owens, SC

1:21 AM EST on November 20, 2019 (GMT -0500)
Columbia Owens Downtown

Weather History for KCUB - September, 2019

Change the Weather History Date:

Friday, September 27, 2019

  Actual Average Record
Temperature  
Mean Temperature 85 °F 72 °F  
Max Temperature 96 °F 83 °F 96 °F (2019)
Min Temperature 74 °F 62 °F 50 °F (2001)
Degree Days  
Heating Degree Days 0 0  
Month to date heating degree days 0 0  
Since 1 July heating degree days 0 0  
Cooling Degree Days 20 8  
Month to date cooling degree days 452 308  
Year to date cooling degree days 2575 2126  
Growing Degree Days 33 (Base 50)    
Moisture  
Dew Point 71 °F    
Average Humidity 79    
Maximum Humidity 100    
Minimum Humidity 41    
Precipitation  
Precipitation 0.00 in 0.13 in 2.05 in (2004)
Month to date precipitation 0.79 3.67  
Year to date precipitation 23.97 35.52  
Sea Level Pressure  
Sea Level Pressure 29.99 in    
Wind  
Wind Speed 2 mph (South)    
Max Wind Speed 20 mph    
Max Gust Speed 26 mph    
Visibility 7 miles    
Events Thunderstorm    
T = Trace of Precipitation, MM = Missing Value Source: NWS Daily Summary

Daily Weather History Graph

Daily Weather History Graph

Search for Another Location

Airport or City:

Astronomy

Sep. 27, 2019 Rise Set
Actual Time 7:15 AM EDT 7:14 PM EDT
Civil Twilight 6:50 AM EDT 7:38 PM EDT
Nautical Twilight 6:21 AM EDT 8:07 PM EDT
Astronomical Twilight 5:52 AM EDT 8:37 PM EDT
Moon 5:43 AM EDT (9/27) 6:58 PM EDT (9/27)
Length of Visible Light 12h 48m
Length of Day
11h 58m
Waning Crescent, 2% of the Moon is Illuminated
Sep 27
Waning Crescent
Sep 28
New
Oct 5
First Quarter
Oct 13
Full
Oct 21
Last Quarter

Hourly Weather History & Observations

Time (EDT) Temp. Heat Index Dew Point Humidity Pressure Visibility Wind Dir Wind Speed Gust Speed Precip Events Conditions
12:53 AM 79.0 °F - 72.0 °F 79% 29.92 in 10.0 mi Calm Calm - N/A   Clear
1:53 AM 78.1 °F - 72.0 °F 81% 29.92 in 10.0 mi Calm Calm - N/A   Clear
2:53 AM 75.9 °F - 71.1 °F 85% 29.92 in 10.0 mi Calm Calm - N/A   Clear
3:53 AM 75.9 °F - 71.1 °F 85% 29.91 in 9.0 mi Calm Calm - N/A   Clear
4:53 AM 73.9 °F - 70.0 °F 87% 29.93 in 8.0 mi Calm Calm - N/A   Clear
5:53 AM 73.9 °F - 71.1 °F 91% 29.94 in 7.0 mi Calm Calm - N/A   Clear
6:27 AM 73.9 °F - 71.1 °F 91% 29.96 in 5.0 mi Calm Calm - N/A   Scattered Clouds
6:37 AM 73.9 °F - 72.0 °F 93% 29.97 in 5.0 mi Calm Calm - N/A   Mostly Cloudy
6:53 AM 73.9 °F - 72.0 °F 93% 29.96 in 3.0 mi Variable 3.5 mph - N/A   Overcast
7:24 AM 73.9 °F - 72.0 °F 93% 29.98 in 1.5 mi Calm Calm - N/A   Overcast
7:27 AM 73.9 °F - 72.0 °F 93% 29.98 in 0.8 mi Calm Calm - N/A   Overcast
7:53 AM 73.9 °F - 73.0 °F 97% 29.99 in 1.0 mi Calm Calm - N/A   Overcast
8:07 AM 73.9 °F - 73.0 °F 97% 30.00 in 1.2 mi Calm Calm - N/A   Overcast
8:17 AM 73.9 °F - 73.0 °F 97% 30.01 in 1.0 mi South 3.5 mph - N/A   Overcast
8:25 AM 73.9 °F - 73.0 °F 97% 30.01 in 1.5 mi SE 3.5 mph - N/A   Overcast
8:51 AM 75.2 °F - 73.4 °F 94% 30.01 in 3.0 mi Variable 3.5 mph - N/A   Overcast
8:53 AM 75.0 °F - 73.0 °F 94% 30.01 in 3.0 mi SSE 3.5 mph - N/A   Overcast
9:53 AM 77.0 °F - 73.0 °F 88% 30.02 in 7.0 mi Calm Calm - N/A   Overcast
10:02 AM 77.0 °F - 73.0 °F 88% 30.03 in 7.0 mi SSE 3.5 mph - N/A   Overcast
10:38 AM 80.1 °F 84.2 °F 73.0 °F 79% 30.04 in 8.0 mi SSE 4.6 mph - N/A   Overcast
10:53 AM 80.1 °F 84.2 °F 73.0 °F 79% 30.03 in 9.0 mi Calm Calm - N/A   Overcast
11:21 AM 82.9 °F 88.8 °F 73.0 °F 72% 30.04 in 9.0 mi Variable 3.5 mph - N/A   Mostly Cloudy
11:53 AM 84.9 °F 91.4 °F 73.0 °F 67% 30.03 in 10.0 mi Variable 3.5 mph - N/A   Clear
12:53 PM 90.0 °F 96.4 °F 71.1 °F 54% 30.01 in 10.0 mi Variable 3.5 mph - N/A   Partly Cloudy
1:53 PM 93.0 °F 100.7 °F 72.0 °F 50% 29.99 in 10.0 mi Calm Calm - N/A   Partly Cloudy
2:53 PM 93.0 °F 95.9 °F 66.0 °F 41% 29.95 in 10.0 mi SSW 3.5 mph - N/A   Clear
3:53 PM 93.9 °F 97.0 °F 66.0 °F 40% 29.94 in 10.0 mi WSW 8.1 mph - N/A Thunderstorm Clear
4:53 PM 84.0 °F 86.5 °F 66.9 °F 56% 29.98 in 10.0 mi SSE 6.9 mph - N/A Thunderstorm Clear
5:20 PM 82.0 °F 85.5 °F 69.1 °F 65% 29.99 in 10.0 mi Variable 4.6 mph - N/A   Clear
5:53 PM 81.0 °F 84.1 °F 69.1 °F 67% 29.98 in 10.0 mi Calm Calm - N/A   Clear
6:53 PM 82.9 °F 86.5 °F 69.1 °F 63% 30.01 in 10.0 mi Calm Calm - N/A   Scattered Clouds
7:53 PM 81.0 °F 84.4 °F 70.0 °F 69% 30.01 in 10.0 mi Calm Calm - N/A   Partly Cloudy
8:53 PM 79.0 °F - 70.0 °F 74% 30.03 in 10.0 mi Calm Calm - N/A   Clear
9:53 PM 78.1 °F - 71.1 °F 79% 30.05 in 10.0 mi Variable 3.5 mph - N/A   Clear
10:53 PM 78.1 °F - 70.0 °F 76% 30.06 in 10.0 mi Variable 3.5 mph - N/A   Clear
11:53 PM 77.0 °F - 70.0 °F 79% 30.06 in 10.0 mi Variable 3.5 mph - N/A   Clear